User: anonymous   Login
Location: Hains Lake
(37.8540°N, 99.8578°W)
Time: 08:23:02
(UTC+00:00)
Language:

STARLINK-1019 - Orbit

View from above orbital plane
View from above orbital plane
View from above satellite
View from above satellite

Ground track
Ground track

The orbit data is extracted from the following two-line orbital elements,

1 44724C 19074M   20058.19111563 -.01014498  00000-0 -21500-1 0   588
2 44724  53.0106 356.8697 0001077  68.2106 275.7121 15.45513517    13
Epoch (UTC): 27 February 2020 04:35:12
Eccentricity: 0.0001077
inclination: 53.0106°
perigee height: 429 km
apogee height: 430 km
right ascension of ascending node: 356.8697°
argument of perigee: 68.2106°
revolutions per day: 15.45513517
mean anomaly at epoch: 275.7121°
orbit number at epoch: 1

The dashed part of the orbit path shows where the satellite is in the earth's shadow,  

DLR